{"data":{"norad_id":62629,"epoch":"2026-09-18T03:51:36.909504Z","epoch_age_seconds":216556,"freshness":"STALE","line1":"1 62629U 25009W   26261.16084386  .00008734  00000+0  29333-3 0  9998","line2":"2 62629  97.3860 342.1274 0002541  24.9606 335.1757 15.31084807 93136","mean_motion":15.31084807,"eccentricity":0.0002541,"inclination_deg":97.386,"raan_deg":342.1274,"arg_perigee_deg":24.9606,"mean_anomaly_deg":335.1757,"bstar":0.00029333,"rev_number":9313,"period_min":94.050962651868,"perigee_km":470.83370177531,"apogee_km":474.31523334312,"semimajor_km":6850.7114675592,"source":"CELESTRAK","updated_at":"2026-09-20T09:00:34.718099Z"}}